• En España
  • Lista de países
  • Para 7 días
  • Temperatura del agua
  • Mapa Satelital
  • El tiempo en el mapa
  • Informadores
  • user-avatar
    Iniciar sesión

    Tiempo cada hora Ashtarak

    Hoy, 14 Agosto, Martes

    Tiempo Temperatura Precipitaciones Viento Presión Humedad
    00:00 +18°C° 0 mm 3 mps 656 mmHg 75%
    01:00 +18°C° 0 mm 3 mps 656 mmHg 76%
    02:00 +18°C° 0 mm 3 mps 656 mmHg 78%
    03:00 +18°C° 0 mm 4 mps 656 mmHg 80%
    04:00 +18°C° 0 mm 3 mps 656 mmHg 79%
    05:00 +18°C° 0 mm 3 mps 657 mmHg 79%
    06:00 +18°C° 0 mm 3 mps 657 mmHg 79%
    07:00 +20°C° 0 mm 3 mps 657 mmHg 72%
    08:00 +21°C° 0 mm 3 mps 657 mmHg 66%
    09:00 +24°C° 0 mm 3 mps 658 mmHg 60%
    10:00 +25°C° 0 mm 3 mps 658 mmHg 56%
    11:00 +26°C° 0 mm 3 mps 658 mmHg 53%
    12:00 +26°C° 0 mm 3 mps 658 mmHg 49%
    13:00 +27°C° 0,3 mm 3 mps 658 mmHg 49%
    14:00 +27°C° 0,3 mm 4 mps 657 mmHg 50%
    15:00 +27°C° 0,3 mm 4 mps 657 mmHg 50%
    16:00 +26°C° 0,5 mm 4 mps 657 mmHg 53%
    17:00 +25°C° 0,5 mm 4 mps 657 mmHg 57%
    18:00 +23°C° 0,5 mm 5 mps 657 mmHg 60%
    19:00 +22°C° 0,2 mm 4 mps 657 mmHg 65%
    20:00 +20°C° 0,2 mm 4 mps 657 mmHg 69%
    21:00 +19°C° 0,2 mm 3 mps 657 mmHg 74%
    22:00 +18°C° 0,1 mm 3 mps 657 mmHg 74%
    23:00 +18°C° 0,1 mm 3 mps 657 mmHg 75%

    Mañana, 15 Agosto, Miércoles

    Tiempo Temperatura Precipitaciones Viento Presión Humedad
    00:00 +18°C° 0,1 mm 3 mps 657 mmHg 76%
    01:00 +17°C° 0,1 mm 3 mps 657 mmHg 76%
    02:00 +17°C° 0,1 mm 2 mps 657 mmHg 77%
    03:00 +17°C° 0,1 mm 2 mps 657 mmHg 78%
    04:00 +17°C° 0,1 mm 2 mps 657 mmHg 78%
    05:00 +17°C° 0,1 mm 2 mps 657 mmHg 78%
    06:00 +17°C° 0,1 mm 2 mps 657 mmHg 78%
    07:00 +19°C° 0 mm 2 mps 658 mmHg 71%
    08:00 +21°C° 0 mm 2 mps 658 mmHg 64%
    09:00 +23°C° 0 mm 2 mps 658 mmHg 57%
    10:00 +25°C° 0,2 mm 2 mps 658 mmHg 54%
    11:00 +26°C° 0,2 mm 2 mps 658 mmHg 51%
    12:00 +27°C° 0,2 mm 2 mps 658 mmHg 47%
    13:00 +27°C° 0,2 mm 3 mps 658 mmHg 46%
    14:00 +28°C° 0,2 mm 3 mps 658 mmHg 46%
    15:00 +28°C° 0,2 mm 3 mps 658 mmHg 45%
    16:00 +28°C° 0,2 mm 3 mps 658 mmHg 47%
    17:00 +27°C° 0,2 mm 3 mps 658 mmHg 50%
    18:00 +26°C° 0,2 mm 4 mps 658 mmHg 52%
    19:00 +25°C° 0,2 mm 3 mps 658 mmHg 58%
    20:00 +22°C° 0,2 mm 3 mps 658 mmHg 64%
    21:00 +20°C° 0,2 mm 3 mps 658 mmHg 69%
    22:00 +20°C° 0 mm 3 mps 658 mmHg 70%
    23:00 +19°C° 0 mm 2 mps 658 mmHg 70%

    Pasado mañana, 16 Agosto, Jueves

    Tiempo Temperatura Precipitaciones Viento Presión Humedad
    00:00 +19°C° 0 mm 2 mps 658 mmHg 71%
    01:00 +18°C° 0 mm 2 mps 658 mmHg 71%
    02:00 +18°C° 0 mm 2 mps 658 mmHg 71%
    03:00 +18°C° 0 mm 2 mps 658 mmHg 71%
    04:00 +18°C° 0 mm 2 mps 658 mmHg 70%
    05:00 +18°C° 0 mm 2 mps 658 mmHg 70%
    06:00 +18°C° 0 mm 2 mps 658 mmHg 70%
    07:00 +20°C° 0 mm 2 mps 659 mmHg 61%
    08:00 +24°C° 0 mm 2 mps 659 mmHg 53%
    09:00 +26°C° 0 mm 1 mps 659 mmHg 45%
    10:00 +28°C° 0 mm 2 mps 659 mmHg 41%
    11:00 +29°C° 0 mm 2 mps 659 mmHg 37%
    12:00 +31°C° 0 mm 2 mps 659 mmHg 32%
    13:00 +31°C° 0 mm 2 mps 659 mmHg 31%
    14:00 +33°C° 0 mm 3 mps 659 mmHg 30%
    15:00 +33°C° 0 mm 3 mps 659 mmHg 29%
    16:00 +32°C° 0 mm 2 mps 658 mmHg 33%
    17:00 +31°C° 0 mm 2 mps 658 mmHg 37%
    18:00 +30°C° 0 mm 2 mps 658 mmHg 40%
    19:00 +28°C° 0 mm 2 mps 658 mmHg 48%
    20:00 +26°C° 0 mm 3 mps 658 mmHg 56%
    21:00 +24°C° 0 mm 3 mps 658 mmHg 64%
    22:00 +22°C° 0 mm 3 mps 658 mmHg 66%
    23:00 +22°C° 0 mm 3 mps 658 mmHg 67%

    17 Agosto, Viernes

    Tiempo Temperatura Precipitaciones Viento Presión Humedad
    00:00 +21°C° 0 mm 2 mps 658 mmHg 68%
    01:00 +21°C° 0 mm 2 mps 658 mmHg 68%
    02:00 +20°C° 0 mm 2 mps 657 mmHg 67%
    03:00 +20°C° 0 mm 2 mps 657 mmHg 67%
    04:00 +20°C° 0 mm 2 mps 657 mmHg 66%
    05:00 +20°C° 0 mm 2 mps 657 mmHg 65%
    06:00 +20°C° 0 mm 2 mps 657 mmHg 64%
    07:00 +24°C° 0 mm 1 mps 658 mmHg 55%
    08:00 +26°C° 0 mm 1 mps 658 mmHg 46%
    09:00 +29°C° 0 mm 1 mps 659 mmHg 37%
    10:00 +30°C° 0 mm 1 mps 658 mmHg 33%
    11:00 +32°C° 0 mm 2 mps 658 mmHg 30%
    12:00 +34°C° 0 mm 2 mps 658 mmHg 26%
    13:00 +35°C° 0 mm 2 mps 658 mmHg 25%
    14:00 +35°C° 0 mm 2 mps 658 mmHg 24%
    15:00 +36°C° 0 mm 2 mps 657 mmHg 23%
    16:00 +35°C° 0 mm 2 mps 657 mmHg 27%
    17:00 +34°C° 0 mm 2 mps 657 mmHg 31%
    18:00 +32°C° 0 mm 2 mps 656 mmHg 36%
    19:00 +30°C° 0 mm 2 mps 656 mmHg 44%
    20:00 +27°C° 0 mm 3 mps 656 mmHg 52%
    21:00 +25°C° 0 mm 3 mps 656 mmHg 60%
    22:00 +25°C° 0 mm 3 mps 656 mmHg 60%
    23:00 +24°C° 0 mm 3 mps 656 mmHg 61%

    18 Agosto, Sábado

    Tiempo Temperatura Precipitaciones Viento Presión Humedad
    00:00 +22°C° 0 mm 3 mps 656 mmHg 61%
    01:00 +22°C° 0 mm 3 mps 656 mmHg 62%
    02:00 +21°C° 0 mm 3 mps 655 mmHg 62%
    03:00 +21°C° 0 mm 3 mps 655 mmHg 62%
    04:00 +21°C° 0 mm 2 mps 655 mmHg 63%
    05:00 +20°C° 0 mm 2 mps 655 mmHg 63%
    06:00 +20°C° 0 mm 2 mps 655 mmHg 64%
    07:00 +24°C° 0 mm 2 mps 656 mmHg 57%
    08:00 +26°C° 0 mm 2 mps 656 mmHg 50%
    09:00 +28°C° 0 mm 2 mps 656 mmHg 43%
    10:00 +29°C° 0,2 mm 2 mps 656 mmHg 39%
    11:00 +30°C° 0,2 mm 2 mps 656 mmHg 36%
    12:00 +32°C° 0,2 mm 2 mps 656 mmHg 33%
    13:00 +32°C° 0,3 mm 2 mps 655 mmHg 32%
    14:00 +32°C° 0,3 mm 2 mps 655 mmHg 32%
    15:00 +33°C° 0,3 mm 3 mps 655 mmHg 31%
    16:00 +31°C° 0,3 mm 3 mps 655 mmHg 35%
    17:00 +30°C° 0,3 mm 4 mps 655 mmHg 39%
    18:00 +29°C° 0,3 mm 4 mps 655 mmHg 44%
    19:00 +27°C° 0,2 mm 4 mps 655 mmHg 49%
    20:00 +26°C° 0,2 mm 3 mps 655 mmHg 54%
    21:00 +24°C° 0,2 mm 3 mps 655 mmHg 60%
    22:00 +22°C° 0,2 mm 3 mps 655 mmHg 62%
    23:00 +21°C° 0,2 mm 3 mps 655 mmHg 64%

    19 Agosto, Domingo

    Tiempo Temperatura Precipitaciones Viento Presión Humedad
    00:00 +21°C° 0,2 mm 3 mps 655 mmHg 66%
    01:00 +20°C° 0,1 mm 3 mps 655 mmHg 68%
    02:00 +20°C° 0,1 mm 3 mps 655 mmHg 69%
    03:00 +19°C° 0,1 mm 3 mps 655 mmHg 71%
    04:00 +19°C° 0,2 mm 2 mps 655 mmHg 71%
    05:00 +19°C° 0,2 mm 2 mps 655 mmHg 72%
    06:00 +19°C° 0,2 mm 2 mps 655 mmHg 72%
    07:00 +21°C° 0,2 mm 2 mps 655 mmHg 64%
    08:00 +24°C° 0,2 mm 2 mps 656 mmHg 56%
    09:00 +26°C° 0,2 mm 2 mps 656 mmHg 48%
    10:00 +27°C° 0,2 mm 2 mps 656 mmHg 44%
    11:00 +29°C° 0,2 mm 2 mps 656 mmHg 41%
    12:00 +30°C° 0,2 mm 3 mps 656 mmHg 37%
    13:00 +30°C° 0,2 mm 3 mps 655 mmHg 37%
    14:00 +31°C° 0,2 mm 3 mps 655 mmHg 36%
    15:00 +31°C° 0,2 mm 3 mps 655 mmHg 36%
    16:00 +30°C° 0,8 mm 3 mps 655 mmHg 40%
    17:00 +29°C° 0,8 mm 3 mps 655 mmHg 44%
    18:00 +28°C° 0,8 mm 3 mps 655 mmHg 48%
    19:00 +26°C° 0,5 mm 3 mps 655 mmHg 53%
    20:00 +25°C° 0,5 mm 3 mps 655 mmHg 57%
    21:00 +22°C° 0,5 mm 3 mps 655 mmHg 62%
    22:00 +22°C° 0,3 mm 3 mps 655 mmHg 65%
    23:00 +21°C° 0,3 mm 3 mps 655 mmHg 68%
    Mostrar más